Location: ??????????
(54.4061°N, 22.6114°E)
Time: 01:50:28
(UTC+00:00)

H-2A R/B - Pass Details

Date: 23 October 2019
Orbit: 733 x 837 km, 98.3° (Epoch: 18 November)

Event Time Altitude Azimuth Distance (km) Brightness Sun altitude
Exits shadow 16:00:03 - 82° (E) 2,542 4.0 -7.3°
Reaches altitude 10° 16:00:31 10° 78° (ENE) 2,444 3.9 -7.4°
Maximum altitude 16:03:24 15° 46° (NE) 2,128 3.8 -7.8°
Drops below altitude 10° 16:06:19 10° 13° (NNE) 2,463 4.4 -8.2°
Sets 16:09:43 0° 352° (N) 3,404 5.4 -8.7°
